This is the latest recevied weather packets stored in our database for station/object K4KMJ. If no packets are shown the sender has not sent any weather packets the latest 10 day(s).
| Time | Temp. | Humidity | Pressure | Rain* | Wind** | Luminosity | Snow |
|---|---|---|---|---|---|---|---|
| 1777910070 | 25° C | 61% | 1019.6 hPa | 0 mm | - | 992 W/m² | - |
| 1777909767 | 25° C | 61% | 1019.7 hPa | 0 mm | - | 621 W/m² | - |
| 1777909464 | 25° C | 63% | 1019.6 hPa | 0 mm | - | 948 W/m² | - |
| 1777909162 | 25° C | 62% | 1019.6 hPa | 0 mm | - | 216 W/m² | - |
| 1777908860 | 25° C | 61% | 1019.6 hPa | 0 mm | - | 936 W/m² | - |
| 1777908556 | 25° C | 61% | 1019.8 hPa | 0 mm | - | 208 W/m² | - |
| 1777908253 | 25.56° C | 62% | 1019.9 hPa | 0 mm | - | 896 W/m² | - |
| 1777907950 | 24.44° C | 62% | 1019.9 hPa | 0 mm | - | 843 W/m² | - |
| 1777907645 | 23.89° C | 61% | 1020 hPa | 0 mm | - | 865 W/m² | - |
| 1777907340 | 25° C | 62% | 1019.8 hPa | 0 mm | - | 858 W/m² | - |
| 1777907037 | 25° C | 62% | 1019.7 hPa | 0 mm | - | 199 W/m² | - |
| 1777906735 | 25° C | 61% | 1019.8 hPa | 0 mm | - | 185 W/m² | - |
| 1777906431 | 24.44° C | 60% | 1019.9 hPa | 0 mm | - | 743 W/m² | - |
| 1777906128 | 25.56° C | 60% | 1020 hPa | 0 mm | - | 732 W/m² | - |
| 1777905824 | 25.56° C | 61% | 1020 hPa | 0 mm | - | 713 W/m² | - |
| 1777905522 | 25° C | 62% | 1019.8 hPa | 0 mm | - | 687 W/m² | - |
| 1777905218 | 25° C | 63% | 1019.9 hPa | 0 mm | - | 671 W/m² | - |
| 1777904916 | 25° C | 63% | 1020 hPa | 0 mm | - | 662 W/m² | - |
| 1777904613 | 25° C | 62% | 1019.5 hPa | 0 mm | - | 624 W/m² | - |
| 1777904310 | 24.44° C | 62% | 1019.5 hPa | 0 mm | - | 606 W/m² | - |
| 1777904007 | 24.44° C | 65% | 1019.7 hPa | 0 mm | - | 581 W/m² | - |
| 1777903704 | 24.44° C | 67% | 1019.7 hPa | 0 mm | - | 562 W/m² | - |
| 1777903399 | 23.89° C | 68% | 1019.5 hPa | 0 mm | - | 553 W/m² | - |
| 1777903096 | 23.89° C | 68% | 1019.5 hPa | 0 mm | - | 544 W/m² | - |
| 1777902792 | 23.89° C | 69% | 1019.4 hPa | 0 mm | - | 528 W/m² | - |
* Rain latest hour (hover to see other rain measurements)
** Current wind speed in m/s (hover to see current wind gust speed)